カタログに戻る

STARLINK-2131

運用中通信VLEO
NORAD 47728·PAYLOAD·🇺🇸 United States

打ち上げ Mar 4, 2021 から Cape Canaveral Space Force Station

Loading…

次のパス (今後24時間)

TLE

最新Source: CelesTrak SupGP

元期: Sep 15, 2026, 01:59 UTC

1 47728C 21017G   26258.08312500  .00237380  00000+0  91161-3 0  2582
2 47728  53.0634   7.1273 0006870 325.0618  92.4130 15.86500234    11

AllMySatでSTARLINK-2131をリアルタイム追跡

Download on the App Store